STARLINK-1229 (45231 NORAD) Tracking and Keplerian Element Data

This shows tracking and keplerian element data for the satellite.

Feedback or suggestion? Click here.




ElementValue
Catalog45231
NameSTARLINK-1229
Epoch Orbit2240
Epoch Day190.25001157
Epoch Year2020
RAAN301.1695
Inclination53.0013
Eccentricity0.0001221
Argument of Perigee101.1936
Mean Anonmoly135.1185
Mean Motion15.05575952
Decay Rate0.00030235
L11 45231U 20012BF 20190.25001157 .00030235 00000-0 20856-2 0 9999
L22 45231 53.0013 301.1695 0001221 101.1936 135.1185 15.05575952 22407

Live tracking and technical data element details for STARLINK-1229 (NORAD 45231). STARLINK-1229 can be tracked NOW for your location showing map with azimuth and elevation plus other details from your city location.

Track the satellite on the map from your city or location and see movement details for azimuth, elevation, latitude, longitude, range, height, and movement on the map or in text.







IsCatalogInMostPopularTable: catalog: 45231, numindb: 33
Update: records affected: 1



GetName: 45231 STARLINK-1229

Hit Count: updated at: Fri, 10 Jul 2020 04:01:24 GMT